This is the latest recevied weather packets stored in our database for station/object KF4ERV-4. If no packets are shown the sender has not sent any weather packets the latest 1 day(s).
| Time | Temp. | Humidity | Pressure | Rain* | Wind** | Luminosity | Snow |
|---|---|---|---|---|---|---|---|
| 1778029332 | 16.11° C | 91% | 1007 hPa | 0.25 mm | - | - | - |
| 1778029197 | 16.11° C | 91% | 1007 hPa | 0.25 mm | - | - | - |
| 1778029157 | 16.11° C | 90% | 1007 hPa | 0.51 mm | - | - | - |
| 1778029074 | 16.11° C | 90% | 1007 hPa | 0.51 mm | - | - | - |
| 1778029041 | 16.11° C | 90% | 1007 hPa | 0.51 mm | - | - | - |
| 1778028899 | 16.11° C | 90% | 1007 hPa | 0.51 mm | - | - | - |
| 1778028751 | 16.11° C | 90% | 1007 hPa | 0.51 mm | - | - | - |
| 1778028591 | 16.11° C | 90% | 1007 hPa | 0.51 mm | - | - | - |
| 1778028462 | 16.11° C | 90% | 1007 hPa | 1.02 mm | - | - | - |
| 1778028295 | 16.11° C | 90% | 1007 hPa | 1.02 mm | - | - | - |
| 1778028171 | 16.11° C | 90% | 1007 hPa | 1.02 mm | - | - | - |
| 1778027997 | 16.11° C | 90% | 1007 hPa | 1.02 mm | - | - | - |
| 1778027591 | 16.11° C | 90% | 1007 hPa | 1.27 mm | - | - | - |
| 1778027394 | 16.11° C | 90% | 1007 hPa | 1.27 mm | - | - | - |
| 1778027301 | 16.11° C | 90% | 1007 hPa | 1.27 mm | - | - | - |
| 1778027096 | 16.11° C | 90% | 1007 hPa | 1.27 mm | - | - | - |
| 1778027065 | 16.11° C | 91% | 1007.5 hPa | 1.78 mm | - | - | - |
| 1778026800 | 16.11° C | 90% | 1007.1 hPa | 1.02 mm | - | - | - |
| 1778025852 | 16.11° C | 91% | 1007 hPa | 1.78 mm | - | - | - |
| 1778024161 | 17.22° C | 92% | 1007.2 hPa | 4.06 mm | - | - | - |
| 1778024092 | 17.22° C | 93% | 1007.8 hPa | 4.06 mm | - | - | - |
| 1778023532 | 17.22° C | 92% | 1007.2 hPa | 4.06 mm | - | - | - |
| 1778023499 | 17.22° C | 92% | 1007.2 hPa | 4.06 mm | - | - | - |
| 1778023190 | 17.22° C | 92% | 1007.9 hPa | 4.32 mm | - | - | - |
| 1778022951 | 17.22° C | 92% | 1008 hPa | 4.83 mm | - | - | - |
* Rain latest hour (hover to see other rain measurements)
** Current wind speed in m/s (hover to see current wind gust speed)